Flag for U.S.A. Weather past 2 weeks in Chinle, Arizona, U.S.A.

Now
63 °F

Sunny.


Feels Like: 63 °F
Forecast: 36 / 76 °F
Wind: No wind

Location: Window Rock Airport

Current Time: Mar 29, 2015 at 11:47:08 AM

Latest Report: Mar 29, 2015 at 10:53 AM


Visibility: 10 mi

Pressure: 30.10 "Hg

Humidity: 17%

Dew point: 18 °F

Location of ChinleLocation

Historic Weather in Chinle — Graph

°F

Chinle temperature yesterday

Maximum temperature yesterday: 75 °F (at 2:53 PM)
Minimum temperature yesterday: 27 °F (at 6:53 AM)
Average temperature yesterday: 52 °F

Past Weeks' High & Low Weather Summary

 TemperatureHumidityPressure
High75 °F (Mar 28, 2:53 PM)92% (Mar 20, 4:53 AM)30.32 "Hg (Mar 20, 4:53 AM)
Low23 °F (Mar 15, 7:53 AM)5% (Mar 28, 2:53 PM)29.80 "Hg (Mar 18, 2:53 PM)
Average48 °F41%30.03 "Hg
* Reported Mar 14 9:53 AM — Mar 29 9:53 AM, Chinle, Weather by CustomWeather, © 2015

Note: Actual official high and low records may vary slightly from our data, if they occured in-between our weather recording intervals... More about our weather records

Advertising

Chinle weather history for previous 24 hours

 ConditionsComfort  
Time TempWeatherWind HumidityBarometerVisibility
9:53 AM
Sun, Mar 29
54 °FSunny.No wind24%30.11 "Hg10 mi
8:53 AM43 °FSunny.No wind37%30.16 "Hg10 mi
7:53 AM31 °FClear.No wind54%30.17 "Hg10 mi
6:53 AM32 °FClear.No wind52%30.09 "Hg10 mi
5:53 AM34 °FClear.No wind48%30.05 "Hg10 mi
4:53 AM41 °FClear.No wind36%30.00 "Hg10 mi
3:53 AM45 °FClear.No wind31%29.98 "Hg10 mi
2:53 AM51 °FClear.No wind24%29.96 "Hg10 mi
1:53 AM45 °FClear.No wind28%29.99 "Hg10 mi
12:53 AM47 °FClear.3 mph26%29.98 "Hg10 mi
11:53 PM
Sat, Mar 28
39 °FClear.No wind33%30.03 "Hg10 mi
10:53 PM45 °FClear.No wind26%30.01 "Hg10 mi
9:53 PM49 °FClear.No wind21%30.05 "Hg10 mi
8:53 PM52 °FClear.No wind17%30.07 "Hg10 mi
7:53 PM60 °FSunny.5 mph11%30.06 "Hg10 mi
6:53 PM70 °FSunny.9 mph8%30.02 "Hg10 mi
5:53 PM73 °FSunny.20 mph6%30.00 "Hg10 mi
4:53 PM74 °FSunny.12 mph5%30.00 "Hg10 mi
3:53 PM75 °FSunny.14 mph7%29.99 "Hg10 mi
2:53 PM75 °FSunny.12 mph5%30.00 "Hg10 mi
1:53 PM73 °FSunny.12 mph6%30.03 "Hg10 mi
12:53 PM72 °FSunny.12 mph7%30.04 "Hg10 mi
11:53 AM71 °FSunny.9 mph8%30.04 "Hg10 mi
Weather by CustomWeather, © 2015

See weather overviewHow to use our weather pages